THOR ABLESTAR DEB, 223

Orbit data source: Space-Track

THOR ABLESTAR DEB, 223 is space debris in LEO originally from a launch on Thu, 29 Jun 1961 UTC launched from the Air Force Eastern Test Range (AFETR). Debris objects in space refer to the collection of defunct objects orbiting the Earth. Examples of debris include non-operational satellites, rocket bodies, and fragments generated from explosions, collisions, or faulty payload assembly.

Loading next visibility...
Identifier
223, 1961-015BK
Orbit
LEO
Country
Flag of USUS
Related business
Manufacturer
Unknown
Mission
Spacecraft
Bus & Motor
Unknown
Mass
Unknown
Launch date (UTC)
1961-06-29 (65 years ago)
Launch vehicle
Unknown
Launch site
Air Force Eastern Test Range (AFETR)
Object type
Payload
Rocket body
Debris
Shape & HBR
Unknown shape, 0.3 m
Radar Cross Section
Medium (>0.1 m² and <1 m²)

Expand to show TLE details & history
Last TLE update: 7 hours ago

TLE from 7 hours ago
0 THOR ABLESTAR DEB
1   223U 61015BK  26104.41235420 -.00000007  00000-0  55748-4 0  9995
2   223  66.8880 116.4015 0067365   4.6800 355.4893 13.89011105282017
Epoch: 2026-04-14T09:53Z
TLE epoch observation values (Epoch: 2026-04-14T09:53:47.402Z)
Latitude
-0.00008°
Longitude
125.36498°
Altitude
885.083 km
Speed
7.435 km/s
True Right ascension
07h 45m 36s
True Declination
0° 00' 00"
Sunlit
Object was in daylight at epoch
Visualization orbit readout
Latitude
Unknown
Longitude
Unknown
Altitude
Unknown
Speed
Unknown
Apparent Right ascension
Unknown
Apparent Declination
Unknown
Sunlit
N/A
Visualization observer readout
Local Sidereal Time
23:45:21
Azimuth
Unknown
Elevation
Unknown
Doppler factor
Unknown
Orbital elements
Apogee altitude
979.718 km
Perigee altitude
881.249 km
Semi-major axis
7,308.62 km
Eccentricity
0.00674
Inclination
66.888°
RAAN
116.4015°
Arg. of periapsis
4.68°
True anomaly
355.42808°
Mean anomaly
355.4893°
Eccentric anomaly
355.45874°
Mean motion
3.47368 °/min
Orbital period
103.64 mins
BSTAR
0.000055748
Loading maneuver chart data...
Computing Atmospheric mass density...

Documentation

Showing up to 5 results
|